Location: ??????
(55.7522°N, 37.6156°E)
Time: 16:47:53
(UTC+00:00)

Meteor 2-17 Rocket - Pass Details

Date: 14 June 2025
Orbit: 935 x 955 km, 82.5° (Epoch: 13 July)

Event Time Altitude Azimuth Distance (km) Brightness Sun altitude
Exits shadow 21:46:03 14° 190° (S) 2,371 5.9 -10.9°
Maximum altitude 21:51:23 90° 123° (ESE) 945 4.5 -10.8°
Drops below altitude 10° 21:57:29 10° 12° (NNE) 2,663 8.4 -10.7°
Sets 21:59:59 0° 13° (NNE) 3,613 9.7 -10.7°
